Date_and_time,latitude,longitude,wind_speed,RelWindDirFrom,WindDirFrom,air_pressure,air_temperature,relative_humidity,Temp,platform_speed_wrt_ground,air_pressure_at_mean_sea_level,platform_orientation
2019-01-12 23:50,50.630455,-96.9807583333333,8.6,11.7,183,1000.97,-7.2,99,0.76,0.0,1029.95,125.3
2019-01-13 00:00,50.63044,-96.9807733333333,9.3,11.7,180,1000.92,-7.1,99,0.75,0.0,1029.89,142.0
2019-01-13 00:00,50.6304383333333,-96.9807716666667,8.9,8.9,178,1000.97,-7.0,99,0.75,0.0,1029.94,194.5
2019-01-13 00:10,50.630445,-96.9807616666667,8.5,11.3,179,1000.96,-7.0,99,0.75,0.0,1029.93,194.5
2019-01-13 00:20,50.6304433333333,-96.9807616666667,8.9,12.1,181,1000.87,-6.9,99,0.75,0.0,1029.83,194.5
2019-01-13 00:30,50.6304466666667,-96.9807633333333,9.0,11.7,181,1000.78,-6.9,99,0.75,0.0,1029.76,194.5
2019-01-13 00:40,50.63045,-96.9807633333333,8.8,11.8,181,1000.72,-6.9,99,0.75,0.0,1029.71,194.5
2019-01-13 00:50,50.63045,-96.9807616666667,9.8,12.6,182,1000.56,-6.9,99,0.75,0.0,1029.55,194.5
2019-01-13 01:00,50.63045,-96.98076,10.5,15.3,182,1000.46,-6.7,99,0.75,0.0,1029.44,347.4
2019-01-13 01:10,50.6304583333333,-96.9807783333333,11.2,16.0,181,1000.36,-6.7,100,0.75,0.0,1029.33,347.4
2019-01-13 01:20,50.6304216666667,-96.9807366666667,11.3,14.2,180,1000.22,-6.7,100,0.75,0.0,1029.18,347.4
2019-01-13 01:30,50.63045,-96.98076,12.4,17.3,178,1000.08,-6.6,100,0.75,0.0,1029.02,347.4
2019-01-13 01:40,50.6304533333333,-96.9807583333333,13.9,17.8,179,999.88,-6.5,100,0.76,0.0,1028.81,347.4
2019-01-13 01:50,50.6304566666667,-96.98076,13.8,17.7,178,999.80,-6.4,100,0.76,0.0,1028.72,347.4
2019-01-13 02:00,50.6304583333333,-96.9807616666667,13.5,17.2,181,999.77,-6.4,100,0.76,0.0,1028.68,32.5
2019-01-13 02:10,50.630455,-96.9807616666667,13.7,17.8,180,999.70,-6.3,100,0.76,0.0,1028.60,32.5
2019-01-13 02:20,50.6304566666667,-96.980765,12.8,17.1,177,999.62,-6.3,100,0.75,0.0,1028.52,32.5
2019-01-13 02:30,50.630455,-96.980765,13.5,16.6,177,999.56,-6.3,100,0.75,0.0,1028.46,32.5
2019-01-13 02:40,50.63049,-96.9807733333333,11.5,15.0,178,999.58,-6.2,100,0.75,0.0,1028.48,32.5
2019-01-13 02:50,50.6304466666667,-96.9807683333333,12.4,14.8,179,999.46,-6.2,100,0.75,0.0,1028.34,32.5
2019-01-13 03:00,50.6304483333333,-96.9807666666667,14.0,18.0,178,999.29,-6.2,100,0.75,0.0,1028.16,48.3
2019-01-13 03:10,50.6304466666667,-96.980765,13.2,17.5,177,999.25,-6.2,100,0.75,0.0,1028.12,48.3
2019-01-13 03:20,50.6304483333333,-96.9807666666667,13.8,17.3,179,999.17,-6.1,100,0.75,0.0,1028.03,48.3
2019-01-13 03:30,50.6304483333333,-96.9807683333333,13.4,17.3,179,999.13,-6.1,100,0.75,0.0,1027.98,48.3
2019-01-13 03:40,50.6304483333333,-96.98077,12.8,16.9,177,998.91,-6.1,100,0.75,0.0,1027.75,48.3
2019-01-13 03:50,50.6304483333333,-96.9807716666667,14.2,18.6,178,998.71,-6.1,100,0.72,0.0,1027.55,48.3
2019-01-13 04:00,50.6304483333333,-96.98077,14.8,18.2,179,998.57,-6.1,100,0.72,0.0,1027.39,192.6
2019-01-13 04:10,50.6304483333333,-96.98077,14.7,20.0,182,998.51,-6.1,100,0.72,0.0,1027.33,192.6
2019-01-13 04:20,50.6304483333333,-96.9807683333333,12.9,17.6,184,998.56,-6.0,100,0.72,0.0,1027.38,192.6
2019-01-13 04:30,50.63045,-96.98077,13.9,18.0,182,998.42,-6.0,100,0.72,0.0,1027.23,192.6
2019-01-13 04:40,50.63045,-96.98077,14.0,18.7,181,998.39,-6.0,100,0.72,0.0,1027.20,192.6
2019-01-13 04:50,50.63045,-96.98077,16.3,23.2,181,998.16,-6.0,100,0.73,0.0,1026.97,192.6
2019-01-13 05:00,50.63044,-96.9807716666667,15.8,21.1,181,998.11,-6.0,100,0.73,0.0,1026.92,212.5
2019-01-13 05:10,50.6304516666667,-96.980775,15.4,19.6,181,998.03,-6.0,100,0.72,0.0,1026.83,212.5
2019-01-13 05:20,50.6304533333333,-96.980765,15.4,20.0,182,998.02,-6.0,99,0.73,0.0,1026.82,212.5
2019-01-13 05:30,50.6304733333333,-96.98078,14.2,18.4,184,998.11,-6.0,99,0.74,0.0,1026.91,212.5
2019-01-13 05:40,50.6304583333333,-96.9807566666667,14.0,18.0,182,997.96,-6.0,99,0.74,0.0,1026.76,212.5
2019-01-13 05:50,50.6304566666667,-96.9807583333333,14.2,16.9,182,997.82,-6.0,99,0.72,0.0,1026.61,212.5
2019-01-13 06:00,50.6304583333333,-96.98077,13.8,18.9,182,997.69,-6.0,99,0.72,0.0,1026.47,360.0
2019-01-13 06:10,50.6304566666667,-96.9807683333333,14.8,21.1,184,997.50,-6.0,99,0.72,0.0,1026.27,360.0
2019-01-13 06:20,50.6304566666667,-96.9807666666667,13.4,18.1,187,997.53,-6.0,99,0.72,0.0,1026.31,360.0
2019-01-13 06:30,50.6304683333333,-96.9807866666667,13.2,16.6,189,997.46,-5.9,99,0.72,0.0,1026.23,360.0
2019-01-13 06:40,50.630465,-96.9807866666667,13.8,19.5,186,997.19,-5.9,99,0.72,0.0,1025.95,360.0
2019-01-13 06:50,50.630465,-96.9807666666667,14.3,19.5,185,997.03,-5.9,99,0.72,0.0,1025.79,360.0
2019-01-13 07:00,50.6304616666667,-96.9807616666667,13.0,17.1,185,997.08,-5.9,99,0.72,0.0,1025.84,360.0
2019-01-13 07:10,50.6304633333333,-96.9807633333333,13.6,17.8,189,997.07,-5.9,99,0.73,0.0,1025.83,360.0
2019-01-13 07:20,50.6304616666667,-96.9807633333333,15.1,20.1,188,996.94,-5.8,99,0.73,0.0,1025.69,360.0
2019-01-13 07:30,50.630455,-96.9807616666667,13.7,18.9,188,996.88,-5.8,99,0.73,0.0,1025.63,360.0
2019-01-13 07:40,50.6304533333333,-96.9807716666667,12.5,17.4,190,997.02,-5.8,99,0.73,0.0,1025.77,360.0
2019-01-13 07:50,50.6304683333333,-96.9807683333333,12.3,18.1,189,996.98,-5.8,99,0.74,0.0,1025.73,360.0
2019-01-13 08:00,50.63046,-96.980765,12.9,16.6,187,996.87,-5.9,99,0.74,0.0,1025.62,23.5
2019-01-13 08:10,50.6304533333333,-96.98078,13.2,16.8,187,996.79,-5.9,99,0.74,0.0,1025.54,23.5
2019-01-13 08:20,50.63046,-96.980775,12.2,17.0,188,996.79,-5.9,99,0.74,0.0,1025.54,23.5
2019-01-13 08:30,50.6304583333333,-96.9807716666667,12.0,17.1,189,996.74,-5.9,99,0.73,0.0,1025.49,23.5
2019-01-13 08:40,50.6304316666667,-96.9807483333333,12.4,16.8,189,996.71,-5.9,99,0.72,0.0,1025.45,23.5
2019-01-13 08:50,50.6304433333333,-96.980755,12.6,16.4,188,996.63,-5.9,99,0.71,0.0,1025.37,23.5
2019-01-13 09:00,50.63047,-96.9807666666667,12.7,16.2,187,996.52,-5.8,99,0.71,0.0,1025.25,360.0
2019-01-13 09:10,50.6304466666667,-96.9807666666667,13.2,18.6,189,996.50,-5.8,99,0.71,0.0,1025.22,360.0
2019-01-13 09:20,50.630455,-96.9807733333333,12.0,16.7,194,996.61,-5.8,99,0.71,0.0,1025.34,360.0
2019-01-13 09:30,50.6304483333333,-96.98076,12.3,16.3,190,996.43,-5.8,99,0.72,0.0,1025.15,360.0
2019-01-13 09:40,50.6304516666667,-96.9807633333333,11.3,15.9,192,996.50,-5.8,99,0.72,0.0,1025.23,360.0
2019-01-13 09:50,50.6304516666667,-96.980765,11.5,16.0,195,996.61,-5.7,99,0.71,0.0,1025.33,360.0
2019-01-13 10:00,50.6304516666667,-96.9807683333333,12.8,19.6,192,996.35,-5.7,99,0.70,0.0,1025.07,194.5
2019-01-13 10:10,50.630455,-96.9807583333333,13.1,17.0,195,996.21,-5.7,99,0.71,0.0,1024.93,194.5
2019-01-13 10:20,50.6304466666667,-96.98077,14.1,18.5,191,995.86,-5.8,99,0.70,0.0,1024.57,194.5
2019-01-13 10:30,50.6304516666667,-96.9807683333333,14.5,18.9,189,995.62,-5.8,99,0.69,0.0,1024.32,194.5
2019-01-13 10:40,50.6304533333333,-96.9807566666667,15.5,22.2,189,995.40,-5.8,99,0.71,0.0,1024.10,194.5
2019-01-13 10:50,50.630455,-96.980765,15.9,22.2,190,995.28,-5.8,99,0.72,0.0,1023.97,194.5
2019-01-13 11:00,50.6304516666667,-96.9807633333333,15.9,22.1,190,995.17,-5.9,99,0.72,0.0,1023.86,142.0
2019-01-13 11:10,50.6304516666667,-96.980765,14.4,21.0,195,995.39,-5.8,99,0.72,0.0,1024.08,142.0
2019-01-13 11:20,50.6304516666667,-96.9807666666667,14.2,19.6,191,995.22,-5.8,99,0.72,0.0,1023.91,142.0
2019-01-13 11:30,50.6304516666667,-96.9807666666667,14.1,18.8,189,994.96,-5.9,99,0.71,0.0,1023.64,142.0
2019-01-13 11:40,50.6304516666667,-96.9807683333333,14.5,20.6,189,994.88,-5.9,99,0.71,0.0,1023.56,142.0
2019-01-13 11:50,50.6304533333333,-96.9807683333333,13.4,18.0,190,994.98,-5.9,99,0.71,0.0,1023.66,142.0
2019-01-13 12:00,50.6304683333333,-96.9807483333333,12.2,17.1,191,995.01,-5.9,99,0.70,0.0,1023.70,125.3
2019-01-13 12:10,50.6304583333333,-96.9807516666667,11.2,16.1,194,995.11,-5.8,99,0.68,0.0,1023.80,125.3
2019-01-13 12:20,50.630455,-96.9807583333333,11.7,16.2,194,995.07,-5.9,99,0.68,0.0,1023.76,125.3
2019-01-13 12:30,50.6304516666667,-96.98076,10.8,15.8,196,995.13,-5.9,99,0.68,0.0,1023.82,125.3
2019-01-13 12:40,50.6304533333333,-96.980765,9.8,13.7,196,995.19,-6.0,99,0.69,0.0,1023.88,125.3
2019-01-13 12:50,50.6304533333333,-96.980765,10.1,12.6,196,995.10,-6.0,99,0.70,0.0,1023.80,125.3
2019-01-13 13:00,50.6304516666667,-96.9807666666667,10.2,13.6,194,995.03,-6.2,99,0.71,0.0,1023.73,0.0
2019-01-13 13:10,50.6304516666667,-96.9807666666667,10.2,14.6,192,994.92,-6.3,99,0.71,0.0,1023.63,0.0
2019-01-13 13:20,50.630455,-96.98076,10.8,15.8,189,994.74,-6.4,99,0.72,0.0,1023.45,0.0
2019-01-13 13:30,50.6304816666667,-96.98076,9.1,12.7,192,994.78,-6.5,99,0.71,0.0,1023.49,0.0
2019-01-13 13:40,50.63047,-96.9807666666667,8.3,10.7,193,994.81,-6.5,99,0.71,0.0,1023.53,0.0
2019-01-13 13:50,50.630465,-96.9807633333333,9.1,12.8,186,994.55,-6.7,99,0.71,0.0,1023.28,0.0
2019-01-13 14:00,50.63045,-96.980755,8.8,12.6,192,994.63,-6.8,99,0.71,0.0,1023.36,90.0
2019-01-13 14:10,50.630455,-96.98076,8.4,11.5,198,994.84,-6.8,99,0.71,0.0,1023.57,90.0
2019-01-13 14:20,50.63046,-96.980765,8.0,10.4,195,994.86,-6.8,99,0.71,0.0,1023.60,90.0
2019-01-13 14:30,50.6304583333333,-96.980765,7.4,9.8,193,994.85,-6.9,99,0.72,0.0,1023.59,90.0
2019-01-13 14:40,50.6304566666667,-96.9807633333333,6.6,8.7,197,994.93,-6.9,99,0.72,0.0,1023.69,90.0
2019-01-13 14:50,50.6304566666667,-96.980765,7.6,9.5,185,994.84,-7.0,99,0.72,0.0,1023.61,90.0
2019-01-13 15:00,50.6304566666667,-96.980765,7.6,10.1,181,994.80,-7.2,99,0.72,0.0,1023.58,183.2
2019-01-13 15:10,50.6304566666667,-96.980765,6.3,8.6,189,994.91,-7.2,99,0.72,0.0,1023.70,183.2
2019-01-13 15:20,50.630455,-96.980765,7.1,9.4,190,994.97,-7.1,99,0.72,0.0,1023.76,183.2
2019-01-13 15:30,50.6304633333333,-96.980765,7.1,9.5,190,995.03,-7.1,99,0.72,0.0,1023.82,183.2
2019-01-13 15:40,50.63046,-96.9807716666667,7.3,9.9,193,995.11,-7.0,98,0.72,0.0,1023.91,183.2
2019-01-13 15:50,50.6304516666667,-96.98078,7.4,10.1,193,995.19,-6.7,96,0.72,0.0,1023.98,183.2
2019-01-13 16:00,50.6304633333333,-96.9807633333333,8.2,11.0,189,995.29,-6.4,94,0.73,0.0,1024.07,360.0
2019-01-13 16:10,50.630465,-96.9807683333333,9.1,12.1,186,995.34,-6.4,95,0.74,0.0,1024.12,360.0
2019-01-13 16:20,50.6304666666667,-96.9807666666667,8.3,11.4,189,995.48,-6.5,95,0.74,0.0,1024.27,360.0
2019-01-13 16:30,50.6304666666667,-96.9807666666667,7.9,10.0,192,995.61,-6.5,95,0.74,0.0,1024.41,360.0
2019-01-13 16:40,50.6304383333333,-96.9807583333333,7.8,10.8,188,995.60,-6.6,95,0.75,0.0,1024.41,360.0
2019-01-13 16:50,50.6304516666667,-96.9807566666667,6.7,8.8,192,995.62,-6.6,95,0.75,0.0,1024.44,360.0
2019-01-13 17:00,50.6304516666667,-96.9807583333333,6.4,8.3,189,995.62,-6.6,95,0.75,0.0,1024.44,0.0
2019-01-13 17:10,50.6304533333333,-96.9807583333333,5.9,7.7,192,995.55,-6.5,94,0.76,0.0,1024.35,0.0
2019-01-13 17:20,50.63044,-96.9807566666667,5.6,7.3,187,995.41,-6.5,94,0.75,0.0,1024.21,0.0
2019-01-13 17:30,50.63045,-96.9807783333333,7.1,8.9,182,995.19,-6.6,94,0.75,0.0,1023.98,0.0
2019-01-13 17:40,50.6304683333333,-96.9807683333333,8.1,9.6,183,995.06,-6.6,94,0.75,0.0,1023.83,0.0
2019-01-13 17:50,50.6304583333333,-96.980765,7.2,9.0,185,994.96,-6.4,94,0.76,0.0,1023.70,0.0
2019-01-13 18:00,50.6304483333333,-96.9807616666667,6.4,9.1,203,994.90,-6.2,90,0.76,0.0,1023.63,131.7
2019-01-13 18:10,50.6304533333333,-96.9807733333333,6.9,8.9,211,994.86,-6.0,87,0.75,0.0,1023.59,131.7
2019-01-13 18:20,50.6304533333333,-96.98077,6.5,9.3,215,994.83,-5.9,86,0.76,0.0,1023.55,131.7
2019-01-13 18:30,50.6304533333333,-96.9807733333333,6.9,9.7,222,994.78,-6.0,86,0.75,0.0,1023.51,131.7
2019-01-13 18:40,50.630455,-96.980775,6.8,8.9,215,994.77,-6.0,86,0.75,0.0,1023.50,131.7
2019-01-13 18:50,50.630455,-96.980775,6.4,9.0,214,994.63,-6.1,86,0.74,0.0,1023.36,131.7
2019-01-13 19:00,50.6304533333333,-96.9807733333333,6.2,8.5,205,994.44,-6.1,86,0.74,0.0,1023.16,360.0
2019-01-13 19:10,50.630455,-96.9807616666667,6.0,7.8,200,994.28,-6.1,86,0.74,0.0,1023.00,360.0
2019-01-13 19:20,50.6304583333333,-96.9807716666667,6.6,9.8,196,994.20,-6.1,88,0.75,0.0,1022.92,360.0
2019-01-13 19:30,50.630455,-96.98077,6.3,8.1,205,994.19,-6.1,86,0.75,0.0,1022.91,360.0
2019-01-13 19:40,50.6304566666667,-96.98077,5.8,7.9,196,994.20,-6.1,86,0.75,0.0,1022.90,360.0
2019-01-13 19:50,50.630455,-96.9807683333333,5.6,7.7,194,994.17,-6.1,85,0.75,0.0,1022.86,360.0
2019-01-13 20:00,50.6304533333333,-96.9807683333333,6.1,7.6,192,994.14,-6.0,85,0.75,0.0,1022.82,270.0
2019-01-13 20:10,50.630455,-96.9807683333333,5.7,7.4,197,994.10,-6.0,85,0.76,0.0,1022.77,270.0
2019-01-13 20:20,50.63045,-96.9807633333333,4.2,6.8,203,994.03,-5.9,84,0.76,0.0,1022.69,270.0
2019-01-13 20:30,50.6304666666667,-96.980765,5.8,8.1,176,994.02,-6.0,87,0.76,0.0,1022.70,270.0
2019-01-13 20:40,50.6304566666667,-96.9807783333333,6.3,7.6,183,994.09,-6.2,89,0.76,0.0,1022.78,270.0
2019-01-13 20:50,50.630455,-96.9807766666667,6.7,8.3,181,994.12,-6.2,89,0.76,0.0,1022.82,270.0
2019-01-13 21:00,50.630455,-96.9807766666667,5.9,7.6,189,994.38,-6.2,88,0.76,0.0,1023.08,299.2
2019-01-13 21:10,50.630455,-96.980775,4.4,5.7,202,994.75,-6.2,88,0.76,0.0,1023.46,299.2
2019-01-13 21:20,50.630485,-96.9808083333333,4.5,6.1,222,995.07,-6.0,87,0.76,0.0,1023.78,299.2
2019-01-13 21:30,50.6304516666667,-96.980775,3.9,5.6,238,995.35,-6.0,87,0.75,0.0,1024.07,299.2
2019-01-13 21:40,50.6304516666667,-96.9807683333333,4.6,7.3,249,995.44,-5.9,86,0.76,0.0,1024.15,299.2
2019-01-13 21:50,50.6304533333333,-96.9807683333333,4.5,6.7,240,995.46,-5.8,85,0.76,0.0,1024.16,299.2
2019-01-13 22:00,50.6304516666667,-96.980765,3.2,5.0,253,995.45,-5.8,85,0.75,0.0,1024.15,90.0
2019-01-13 22:10,50.6304283333333,-96.980745,4.4,6.3,287,995.51,-5.7,84,0.75,0.0,1024.20,90.0
2019-01-13 22:20,50.6304416666667,-96.9807533333333,3.4,5.0,274,995.56,-5.8,84,0.75,0.0,1024.27,90.0
2019-01-13 22:30,50.6304433333333,-96.9807566666667,3.4,5.0,272,995.66,-5.8,84,0.76,0.0,1024.38,90.0
2019-01-13 22:40,50.6304466666667,-96.9807566666667,3.4,4.8,275,995.76,-5.9,84,0.76,0.0,1024.49,90.0
2019-01-13 22:50,50.630445,-96.980755,2.5,4.3,271,995.83,-5.9,85,0.76,0.0,1024.56,90.0
2019-01-13 23:00,50.6304433333333,-96.980755,2.6,3.7,266,995.92,-5.9,85,0.76,0.0,1024.66,165.5
2019-01-13 23:10,50.630445,-96.9807566666667,3.4,4.6,267,996.12,-5.9,85,0.75,0.0,1024.86,165.5
2019-01-13 23:20,50.6304466666667,-96.9807566666667,3.2,4.3,267,996.21,-5.9,85,0.76,0.0,1024.94,165.5
2019-01-13 23:30,50.63048,-96.9807683333333,3.2,4.7,268,996.23,-5.9,85,0.76,0.0,1024.95,165.5
